Birmingham, United Kingdom

9:51 AM GMT on February 10, 2016 (GMT +0000)
Birmingham

Weather History for EGBB - March, 2013

Change the Weather History Date:

Tuesday, March 19, 2013

  Actual Average Record
Temperature  
Mean Temperature 38 °F -  
Max Temperature 42 °F 51 °F 59 °F (2003)
Min Temperature 33 °F 37 °F 23 °F (2011)
Degree Days  
Heating Degree Days 28    
Moisture  
Dew Point 34 °F    
Average Humidity 89    
Maximum Humidity 100    
Minimum Humidity 76    
Precipitation  
Precipitation 0.00 in 0.07 in - ()
Sea Level Pressure  
Sea Level Pressure 29.44 in    
Wind  
Wind Speed 4 mph ()    
Max Wind Speed 10 mph    
Max Gust Speed -    
Visibility 4.3 miles    
Events Rain , Snow    
Averages and records for this station are not official NWS values.
T = Trace of Precipitation, MM = Missing Value Source: Averaged Metar Reports

Daily Weather History Graph

Daily Weather History Graph

Search for Another Location

Airport or City:

Trip Planner

Search our weather history database for the weather conditions in past years. The results will help you decide how hot, cold, wet, or windy it might be!

Date:

Astronomy

Mar. 19, 2013 Rise Set
Actual Time 6:11 AM GMT 6:18 PM GMT
Civil Twilight 5:37 AM GMT 6:52 PM GMT
Nautical Twilight 4:57 AM GMT 7:32 PM GMT
Astronomical Twilight 4:15 AM GMT 8:14 PM GMT
Moon 10:05 AM GMT (3/19) 1:37 AM GMT (3/19)
Length of Visible Light 13h 14m
Length of Day
12h 06m
Waxing Crescent, 48% of the Moon is Illuminated
Mar 19
Waxing Crescent
Mar 19
First Quarter
Mar 27
Full
Apr 3
Last Quarter
Apr 10
New

Hourly Weather History & Observations

Time (GMT) Temp. Windchill Dew Point Humidity Pressure Visibility Wind Dir Wind Speed Gust Speed Precip Events Conditions
12:20 AM 35.6 °F - 33.8 °F 93% 29.39 in 4.3 mi Calm Calm - N/A Snow Light Snow
12:50 AM 35.6 °F - 33.8 °F 93% 29.39 in - Calm Calm - N/A Rain , Snow Light Rain
1:20 AM 35.6 °F 32.8 °F 33.8 °F 93% 29.39 in 3.1 mi ENE 3.5 mph - N/A Rain Light Rain
1:50 AM 35.6 °F 32.8 °F 33.8 °F 93% 29.39 in 3.1 mi East 3.5 mph - N/A   Partly Cloudy
2:20 AM 35.6 °F 31.7 °F 33.8 °F 93% 29.39 in - NE 4.6 mph - N/A   Scattered Clouds
2:50 AM 33.8 °F - 33.8 °F 100% 29.39 in 1.6 mi North 2.3 mph - N/A   Mostly Cloudy
3:20 AM 33.8 °F - 33.8 °F 100% 29.39 in - Calm Calm - N/A   Mostly Cloudy
3:50 AM 33.8 °F - 33.8 °F 100% 29.39 in - Variable 2.3 mph - N/A   Overcast
4:20 AM 33.8 °F - 33.8 °F 100% 29.39 in - Calm Calm - N/A   Mostly Cloudy
4:50 AM 33.8 °F 30.8 °F 33.8 °F 100% 29.39 in 1.9 mi SE 3.5 mph - N/A Rain Light Rain
5:20 AM 33.8 °F - 32.0 °F 93% 29.42 in 1.4 mi SSE 2.3 mph - N/A Rain , Snow Light Rain
5:50 AM 33.8 °F - 32.0 °F 93% 29.42 in 1.7 mi Calm Calm - N/A   Light Drizzle
6:20 AM 33.8 °F 29.6 °F 33.8 °F 100% 29.42 in 1.3 mi SE 4.6 mph - N/A   Overcast
6:50 AM 33.8 °F 28.6 °F 33.8 °F 100% 29.42 in 1.2 mi ESE 5.8 mph - N/A   Overcast
7:20 AM 33.8 °F 28.6 °F 33.8 °F 100% 29.42 in 1.6 mi SE 5.8 mph - N/A   Mostly Cloudy
7:50 AM 33.8 °F 27.7 °F 33.8 °F 100% 29.42 in 1.6 mi SE 6.9 mph - N/A   Overcast
8:20 AM 35.6 °F 29.9 °F 33.8 °F 93% 29.42 in 1.9 mi SE 6.9 mph - N/A   Mostly Cloudy
8:50 AM 35.6 °F 29.9 °F 33.8 °F 93% 29.44 in 1.9 mi SSE 6.9 mph - N/A   Mostly Cloudy
9:20 AM 35.6 °F 31.7 °F 35.6 °F 100% 29.44 in 3.1 mi SE 4.6 mph - N/A   Mostly Cloudy
9:50 AM 37.4 °F 33.8 °F 35.6 °F 93% 29.44 in 3.7 mi SSE 4.6 mph - N/A   Mostly Cloudy
10:20 AM 37.4 °F 32.8 °F 35.6 °F 93% 29.44 in 3.7 mi ESE 5.8 mph - N/A   Mostly Cloudy
10:50 AM 37.4 °F 32.8 °F 35.6 °F 93% 29.44 in 4.3 mi SE 5.8 mph - N/A   Mostly Cloudy
11:20 AM 37.4 °F 32.8 °F 35.6 °F 93% 29.44 in 4.3 mi SE 5.8 mph - N/A   Mostly Cloudy
11:50 AM 39.2 °F 34.2 °F 35.6 °F 87% 29.47 in 5.0 mi SE 6.9 mph - N/A   Mostly Cloudy
12:20 PM 39.2 °F 33.6 °F 35.6 °F 87% 29.47 in 5.6 mi ESE 8.1 mph - N/A   Mostly Cloudy
12:50 PM 39.2 °F 33.0 °F 35.6 °F 87% 29.47 in 5.6 mi SE 9.2 mph - N/A   Mostly Cloudy
1:20 PM 41.0 °F 34.7 °F 35.6 °F 81% 29.47 in 5.6 mi SE 10.4 mph - N/A   Mostly Cloudy
1:50 PM 41.0 °F 35.8 °F 37.4 °F 87% 29.47 in 6.2 mi SE 8.1 mph - N/A   Mostly Cloudy
2:20 PM 41.0 °F 35.8 °F 35.6 °F 81% 29.44 in 6.2 mi SE 8.1 mph - N/A   Mostly Cloudy
2:50 PM 41.0 °F 35.8 °F 35.6 °F 81% 29.44 in 6.2 mi ESE 8.1 mph - N/A   Mostly Cloudy
3:20 PM 42.8 °F 38.0 °F 35.6 °F 76% 29.44 in 6.2 mi ESE 8.1 mph - N/A   Mostly Cloudy
3:50 PM 42.8 °F 37.5 °F 35.6 °F 76% 29.44 in 6.2 mi SE 9.2 mph - N/A   Mostly Cloudy
4:20 PM 42.8 °F 37.5 °F 35.6 °F 76% 29.44 in 5.0 mi ESE 9.2 mph - N/A   Mostly Cloudy
4:50 PM 42.8 °F 37.5 °F 35.6 °F 76% 29.44 in 5.6 mi SE 9.2 mph - N/A   Scattered Clouds
5:20 PM 41.0 °F 36.4 °F 33.8 °F 76% 29.44 in 6.2 mi ESE 6.9 mph - N/A   Scattered Clouds
5:50 PM 39.2 °F 34.2 °F 33.8 °F 81% 29.44 in 6.2 mi ESE 6.9 mph - N/A   Partly Cloudy
6:20 PM 39.2 °F 35.9 °F 33.8 °F 81% 29.47 in - East 4.6 mph - N/A   Clear
6:50 PM 39.2 °F 35.0 °F 33.8 °F 81% 29.47 in - East 5.8 mph - N/A   Clear
7:20 PM 39.2 °F 33.6 °F 33.8 °F 81% 29.47 in 6.2 mi East 8.1 mph - N/A   Partly Cloudy
7:50 PM 39.2 °F 33.6 °F 33.8 °F 81% 29.50 in 6.2 mi East 8.1 mph - N/A   Scattered Clouds
8:20 PM 39.2 °F 33.6 °F 33.8 °F 81% 29.50 in 6.2 mi ENE 8.1 mph - N/A   Partly Cloudy
8:50 PM 37.4 °F 31.4 °F 33.8 °F 87% 29.50 in 6.2 mi East 8.1 mph - N/A   Partly Cloudy
9:20 PM 37.4 °F 30.8 °F 33.8 °F 87% 29.50 in - East 9.2 mph - N/A   Clear
9:50 PM 37.4 °F 31.4 °F 33.8 °F 87% 29.50 in 5.6 mi East 8.1 mph - N/A   Mostly Cloudy
10:20 PM 35.6 °F 29.9 °F 33.8 °F 93% 29.50 in 5.6 mi East 6.9 mph - N/A   Mostly Cloudy
10:50 PM 35.6 °F 30.7 °F 33.8 °F 93% 29.53 in 5.6 mi East 5.8 mph - N/A   Mostly Cloudy
11:20 PM 35.6 °F 29.9 °F 32.0 °F 87% 29.53 in 5.6 mi East 6.9 mph - N/A   Unknown
11:50 PM 33.8 °F 27.7 °F 32.0 °F 93% 29.53 in 5.0 mi East 6.9 mph - N/A   Unknown